Wetbulb
52.42 50.32 50.02 49.50 49.94 49.24 47.92 46.00 42.02 39.40 39.34 39.16 38.82 37.81 37.18 36.28 35.95 35.20 34.08 33.75 33.05 30.91 31.00 29.79 29.04 28.99 27.85 27.40 26.78 26.14 25.40 25.65 24.40 25.94 25.77 25.19 23.93 23.56 23.03 22.10 23.33 21.80 21.39
50.63 50.07 48.51 49.20 48.33 46.83 45.84 42.19 40.56 38.85 38.86 38.83 38.35 37.92 36.86 35.95 35.05 34.46 33.59 33.15 32.21 29.50 29.40 28.95 28.37 30.61 26.84 26.90 25.97 25.65 25.38 25.48 24.50 23.15 24.37 23.29 22.66 23.24 22.07 21.10 22.91 22.95 21.53
50.75 49.89 48.91 47.65 46.00 44.23 42.63 40.63 39.26 38.26 38.02 38.38 38.16 36.62 35.54 34.95 34.22 34.27 33.47 32.15 31.61 30.36 29.52 28.55 27.86 26.54 26.11 25.61 25.18 24.98 25.21 27.67 24.38 23.81 23.37 23.59 22.92 21.88 20.83 21.00 20.58 19.93 22.45
47.75 47.18 45.78 45.63 44.40 43.44 41.23 39.28 38.19 37.80 37.32 37.03 36.62 35.92 35.08 34.32 33.82 34.00 32.99 31.23 30.69 30.48 30.02 28.82 28.06 27.04 26.57 26.08 25.99 25.10 25.56 24.11 23.70 22.71 23.11 22.68 22.02 21.49 19.29 18.19 17.86 19.20 19.01
45.16 45.04 44.23 43.47 43.56 41.22 38.66 37.41 37.17 36.75 36.74 36.76 35.31 34.77 34.60 34.19 34.32 32.60 31.50 30.38 29.50 28.58 28.50 28.55 27.98 28.12 30.80 29.17 26.68 25.44 25.62 23.53 23.07 22.57 22.13 21.67 20.68 19.51 18.56 18.53 16.44 16.31 17.57
44.08 44.01 44.25 42.40 40.19 38.13 36.86 36.02 34.87 34.82 35.20 34.04 32.71 32.59 32.61 34.65 36.80 36.54 32.09 29.72 29.54 28.69 27.36 26.96 26.64 27.81 28.63 30.29 30.60 30.47 28.16 24.48 23.18 22.40 21.51 21.37 21.67 20.35 18.22 16.50 15.21 12.60 11.31
42.03 41.50 39.60 38.51 36.63 35.40 34.51 33.67 33.64 33.41 33.42 32.28 31.72 31.38 30.96 31.73 37.35 37.13 34.76 29.74 28.77 27.98 27.66 27.19 26.49 26.74 26.93 25.72 29.61 30.34 29.93 30.07 29.01 23.54 21.50 21.07 19.82 20.54 17.94 13.78 14.42 12.89 13.94
39.43 39.19 37.00 36.23 34.81 33.71 33.76 33.42 32.33 32.17 31.81 31.04 30.62 30.87 30.68 31.53 36.93 36.42 34.71 28.94 28.28 28.02 27.56 26.95 26.87 26.34 26.21 26.19 25.90 25.59 25.29 24.46 24.22 23.61 21.53 20.98 20.21 20.31 19.70 18.81 17.49 14.31 13.20
37.10 37.36 36.54 35.66 34.23 33.28 32.94 31.97 31.60 31.44 30.75 30.52 30.75 30.39 30.34 30.30 36.40 35.89 34.11 29.41 28.48 27.88 28.04 27.22 26.79 26.28 28.58 30.61 26.50 25.32 24.00 22.42 25.65 26.46 25.31 24.96 25.38 25.41 21.09 15.16 7.83 5.24 5.20
36.60 36.43 35.27 34.67 33.99 33.19 32.58 31.36 30.01 30.75 30.40 30.17 30.40 30.17 29.93 30.29 35.69 35.89 34.56 30.37 28.67 28.27 27.95 27.27 28.37 27.34 30.14 31.35 26.70 23.03 19.32 19.96 18.88 15.77 18.14 21.53 22.68 21.21 23.28 17.44 15.84 7.74 8.38
34.53 33.45 33.35 33.73 33.39 32.96 31.41 29.44 29.36 29.03 29.38 27.96 28.61 27.31 28.07 28.99 30.63 35.80 36.13 30.83 30.09 28.88 27.71 25.64 26.49 31.47 31.64 31.52 31.57 23.61 22.30 19.88 20.78 15.39 14.83 15.55 15.13 15.47 16.47 16.99 15.54 14.27 10.09
32.51 31.98 31.80 31.45 32.18 31.95 30.82 27.26 28.93 29.00 28.69 26.78 26.10 25.96 27.33 27.91 30.17 34.24 35.91 36.09 33.06 28.41 27.68 27.02 25.89 30.86 32.00 32.43 30.80 30.70 30.00 26.83 15.01 12.98 10.11 13.72 14.37 14.36 15.38 15.32 15.24 15.00 14.94
31.21 31.01 30.96 30.24 30.63 30.64 30.85 28.13 28.11 28.68 28.04 26.84 27.50 26.79 26.79 27.86 27.64 33.49 33.89 35.22 35.53 32.31 27.66 28.50 31.53 32.53 32.47 31.35 32.62 32.32 28.74 27.33 19.94 16.10 14.85 15.07 15.91 17.07 15.51 13.62 14.00 13.41 11.60
31.87 30.05 29.80 30.79 29.75 30.08 30.79 30.49 30.10 28.52 27.59 27.86 28.38 27.81 24.56 25.54 26.04 25.74 26.64 27.05 29.13 30.75 31.02 29.75 31.29 30.64 30.57 28.36 25.76 27.95 29.10 28.02 24.46 19.89 18.36 17.76 15.31 13.81 14.43 12.84 9.39 7.81 1.52
30.61 29.96 30.03 30.59 30.33 28.84 27.65 29.32 28.93 28.18 30.01 28.16 29.26 27.72 24.94 22.89 27.10 29.03 26.65 22.37 21.03 25.52 20.36 22.98 26.82 27.47 26.91 26.47 26.88 26.83 26.73 27.21 26.43 24.82 21.07 19.67 17.74 15.93 13.29 11.58 11.30 8.82 5.14
28.12 27.99 28.72 28.74 27.66 27.45 26.84 24.82 31.05 31.85 31.74 32.39 33.13 30.40 26.85 30.56 31.14 30.60 30.51 30.39 30.93 30.57 27.84 27.35 27.12 27.28 26.26 25.78 25.98 26.15 26.50 26.12 26.41 25.67 22.31 20.28 17.48 14.36 13.51 11.60 11.47 9.17 7.17
28.79 27.65 27.91 27.40 26.17 28.12 27.46 27.17 23.52 23.73 30.84 31.37 31.65 31.57 31.56 30.81 31.40 31.37 30.97 30.35 30.38 29.94 26.67 26.10 26.14 26.45 26.79 26.68 26.74 26.57 25.92 26.33 25.45 21.84 21.33 19.35 18.32 17.30 13.73 12.43 10.60 9.96 7.19
27.37 26.64 28.02 26.87 26.35 25.96 24.54 23.27 22.69 23.71 22.43 18.20 25.67 25.82 28.06 28.31 29.05 30.21 31.08 30.98 28.21 29.08 28.06 27.56 27.55 27.89 27.50 27.43 27.50 26.81 26.63 24.93 21.57 21.08 20.33 19.93 18.98 17.40 15.68 12.68 11.68 10.56 8.26
24.20 23.45 23.19 22.08 22.05 21.65 21.85 21.08 20.04 19.63 18.62 15.09 14.28 22.14 20.63 28.39 29.03 29.39 29.47 17.81 25.88 26.78 27.10 27.09 27.96 28.70 28.79 29.09 28.35 28.10 26.85 23.69 22.50 19.84 19.17 19.17 18.67 17.94 15.43 14.93 13.75 12.21 11.80
18.09 20.92 20.95 20.42 19.61 19.33 18.32 20.08 18.77 17.45 15.30 13.64 15.06 13.47 19.22 25.07 25.33 25.55 25.72 25.54 25.59 25.30 24.89 23.31 23.27 22.70 22.22 24.06 25.15 26.02 22.78 19.64 19.63 22.08 20.32 18.26 17.73 17.08 15.95 15.13 14.18 13.21 12.01
17.73 18.65 19.66 18.73 19.09 18.02 16.54 15.94 15.58 16.25 14.93 14.33 14.98 15.24 25.63 22.03 22.34 22.23 21.25 21.54 21.39 21.31 21.06 20.71 20.69 21.02 21.83 20.81 20.27 20.73 19.41 20.38 19.29 20.25 20.20 18.15 17.97 16.04 15.42 15.15 14.31 13.78 12.67
18.42 18.70 18.35 18.33 17.38 15.67 16.09 15.35 17.26 15.27 15.19 17.94 19.66 17.59 21.69 11.66 14.28 15.87 17.60 11.62 16.19 17.91 16.71 16.20 17.57 17.65 17.55 15.94 16.28 16.73 17.45 17.94 18.12 17.06 19.57 19.15 17.78 16.78 15.51 14.69 13.59 12.10 11.80
18.20 18.82 17.22 14.89 13.27 14.57 13.54 12.91 11.70 11.57 8.68 7.01 5.01 7.65 6.74 4.35 3.13 3.61 2.70 2.08 3.22 2.36 3.68 3.76 2.97 4.11 4.14 5.54 6.23 11.71 13.78 14.35 16.05 17.62 17.30 16.78 16.72 15.52 14.43 13.69 12.25 11.14 9.27
17.78 17.49 16.43 13.79 14.75 13.35 12.37 9.93 5.44 6.29 4.54 4.50 3.68 2.46 2.57 0.20 -0.55 -0.60 -0.38 -1.60 -1.31 -2.11 -0.17 0.75 -0.44 2.39 3.17 2.17 2.97 3.41 4.94 8.62 13.40 13.66 13.21 14.00 13.67 13.75 14.18 12.52 11.94 10.13 9.51
15.58 14.73 14.29 12.92 12.07 10.93 8.02 7.47 5.63 2.98 3.27 4.32 0.80 -0.56 -2.96 -2.74 -3.08 -4.10 -3.48 -2.81 -3.36 -2.26 0.33 2.06 3.91 2.66 3.03 3.22 3.56 3.26 3.70 6.96 6.38 8.04 12.03 12.49 12.21 12.00 11.84 11.71 10.92 9.48 8.03
12.30 11.84 11.38 11.02 10.02 7.79 5.16 6.15 3.18 2.29 -0.69 -2.38 -3.32 -4.43 -4.70 -4.82 -5.21 -5.37 -5.17 -4.08 -3.43 -2.61 1.90 4.25 4.15 2.30 1.85 3.55 3.23 7.56 8.53 11.72 11.32 13.32 14.15 13.53 12.17 11.18 10.33 9.11 8.41 7.89 7.40
MSLP
1014.22 1014.97 1015.75 1016.53 1017.10 1017.68 1018.55 1019.24 1020.01 1020.97 1021.67 1022.27 1022.81 1023.56 1024.24 1024.70 1024.94 1025.71 1026.45 1026.90 1027.27 1027.78 1028.20 1028.52 1029.00 1029.09 1029.50 1029.60 1030.02 1030.43 1030.38 1030.65 1031.12 1030.75 1030.50 1030.83 1031.09 1031.12 1031.34 1031.47 1031.49 1031.55 1031.61
1014.14 1014.82 1015.73 1016.47 1017.03 1017.69 1018.56 1019.32 1019.83 1020.79 1021.52 1021.99 1022.55 1023.27 1023.99 1024.51 1024.88 1025.41 1026.20 1026.65 1027.10 1027.92 1028.20 1028.46 1028.94 1029.01 1029.23 1029.60 1029.79 1030.06 1030.30 1030.71 1031.14 1031.20 1030.64 1030.78 1030.83 1030.95 1030.95 1031.27 1031.27 1031.27 1031.37
1013.98 1014.72 1015.73 1016.46 1017.01 1017.81 1018.56 1019.25 1019.96 1020.78 1021.43 1021.86 1022.39 1023.10 1023.70 1024.25 1024.63 1025.26 1025.92 1026.61 1027.13 1027.57 1027.92 1028.11 1028.60 1029.06 1029.47 1029.56 1029.53 1029.75 1029.85 1030.11 1030.54 1030.93 1030.76 1030.62 1030.76 1030.82 1030.98 1031.03 1031.10 1031.12 1031.06
1014.27 1014.88 1015.70 1016.34 1016.93 1017.66 1018.53 1019.31 1019.97 1020.60 1021.15 1021.70 1022.30 1022.86 1023.45 1023.96 1024.53 1025.19 1025.76 1026.52 1026.99 1027.23 1027.64 1028.08 1028.34 1028.50 1028.86 1029.26 1029.23 1029.49 1029.80 1030.21 1030.44 1030.52 1030.59 1030.60 1030.67 1030.89 1030.96 1031.21 1031.25 1031.16 1031.01
1014.29 1014.88 1015.66 1016.31 1017.00 1017.67 1018.58 1019.22 1019.89 1020.38 1020.94 1021.60 1022.24 1022.76 1023.27 1023.73 1024.24 1024.89 1025.37 1026.02 1026.63 1027.35 1027.60 1027.68 1027.84 1028.03 1028.37 1028.56 1028.83 1028.83 1029.18 1029.62 1030.16 1030.11 1030.20 1030.32 1030.54 1030.80 1030.80 1030.89 1031.43 1031.32 1031.10
1014.53 1015.12 1015.68 1016.20 1016.94 1017.66 1018.57 1019.22 1019.75 1020.31 1020.83 1021.43 1021.96 1022.62 1023.12 1023.43 1023.72 1024.24 1025.42 1026.20 1026.57 1026.92 1027.25 1027.40 1027.87 1027.89 1028.18 1028.22 1028.40 1028.15 1028.66 1028.87 1029.34 1029.60 1029.71 1029.95 1029.88 1030.12 1030.19 1030.70 1031.26 1031.61 1031.57
1014.69 1015.05 1015.83 1016.57 1017.28 1017.85 1018.43 1019.06 1019.72 1020.31 1020.70 1021.33 1021.86 1022.30 1022.81 1023.30 1023.77 1024.23 1024.90 1025.69 1026.03 1026.26 1026.80 1027.09 1027.58 1027.58 1027.87 1027.92 1027.71 1027.77 1028.05 1028.27 1028.41 1028.84 1029.29 1029.36 1029.51 1029.34 1029.65 1030.41 1030.90 1031.25 1031.22
1014.57 1015.06 1015.69 1016.50 1017.26 1017.93 1018.36 1018.80 1019.41 1020.16 1020.67 1021.31 1021.75 1022.17 1022.94 1023.14 1023.41 1023.89 1024.61 1025.28 1025.67 1025.98 1026.22 1026.25 1026.49 1026.56 1026.88 1026.98 1027.22 1027.48 1027.92 1028.31 1028.44 1028.73 1028.83 1029.00 1029.19 1029.20 1029.21 1029.55 1030.23 1030.84 1030.93
1014.37 1014.98 1015.47 1016.01 1016.98 1017.77 1018.28 1018.80 1019.34 1020.03 1020.67 1021.04 1021.40 1022.25 1022.66 1023.03 1023.19 1023.46 1024.28 1024.87 1025.19 1025.42 1025.45 1025.29 1025.45 1025.89 1026.16 1026.35 1026.90 1027.35 1027.59 1027.66 1027.68 1027.89 1028.24 1028.52 1028.67 1028.83 1029.08 1029.76 1030.32 1030.93 1031.05
1014.08 1014.64 1015.07 1015.89 1016.66 1017.27 1017.85 1018.60 1018.99 1019.74 1020.38 1020.96 1021.57 1022.09 1022.33 1022.55 1022.77 1023.22 1023.96 1024.37 1024.76 1024.82 1024.75 1025.00 1025.26 1025.55 1025.70 1026.06 1026.36 1026.68 1027.27 1027.43 1027.69 1028.04 1028.40 1028.38 1028.45 1028.78 1028.66 1029.22 1029.52 1030.07 1030.37
1014.04 1014.44 1015.05 1015.63 1016.12 1016.71 1017.74 1018.44 1019.09 1019.69 1020.28 1021.05 1021.62 1022.10 1022.16 1022.50 1022.80 1022.91 1023.20 1023.45 1023.66 1024.01 1024.32 1024.46 1024.47 1024.41 1024.84 1024.85 1025.36 1026.08 1026.48 1027.19 1027.41 1027.79 1028.03 1028.42 1028.72 1028.87 1028.78 1028.79 1029.02 1029.26 1029.57
1013.77 1014.51 1015.14 1015.79 1016.07 1016.78 1017.67 1018.71 1019.26 1019.74 1020.53 1021.24 1021.60 1021.95 1021.77 1022.18 1022.44 1022.39 1022.78 1022.75 1023.29 1023.57 1023.50 1023.62 1024.07 1024.30 1024.50 1024.56 1024.70 1025.05 1025.61 1026.26 1027.10 1027.51 1028.02 1028.20 1028.35 1028.39 1028.27 1028.37 1028.42 1028.57 1028.70
1013.85 1014.67 1015.24 1015.80 1016.21 1016.70 1017.60 1018.44 1019.26 1019.71 1020.18 1020.69 1021.17 1021.60 1021.61 1021.70 1021.81 1022.00 1022.28 1022.17 1022.31 1022.62 1022.93 1022.90 1023.29 1023.62 1023.96 1024.40 1024.21 1024.49 1025.01 1025.62 1026.51 1027.09 1027.27 1027.22 1027.17 1027.05 1027.50 1027.83 1027.83 1027.99 1028.26
1013.78 1014.61 1015.23 1015.72 1016.22 1016.76 1017.24 1017.77 1018.49 1018.93 1019.55 1020.01 1020.59 1021.00 1021.31 1021.62 1021.40 1021.60 1021.86 1021.90 1022.11 1022.24 1022.21 1022.29 1022.91 1023.02 1023.64 1023.98 1024.21 1024.31 1024.38 1024.87 1025.29 1025.68 1025.89 1025.97 1026.31 1026.58 1026.90 1027.05 1027.53 1028.01 1028.25
1013.75 1014.53 1015.14 1015.45 1016.05 1016.68 1017.33 1017.88 1018.38 1018.59 1018.75 1019.25 1020.13 1020.56 1021.11 1021.43 1021.66 1021.74 1021.82 1021.91 1022.03 1022.09 1022.32 1022.50 1022.70 1022.83 1023.27 1023.76 1023.33 1023.70 1023.97 1024.24 1024.46 1024.68 1024.95 1025.14 1025.46 1025.86 1026.17 1026.51 1026.89 1027.35 1027.62
1014.43 1014.99 1015.31 1015.81 1016.48 1017.31 1017.66 1018.43 1018.76 1019.01 1019.44 1019.70 1020.03 1020.39 1020.57 1020.77 1021.55 1021.59 1021.38 1021.34 1021.50 1021.56 1022.22 1022.64 1022.91 1022.93 1023.06 1023.71 1023.53 1023.12 1023.35 1023.43 1023.42 1023.63 1023.96 1024.30 1024.67 1025.05 1025.33 1025.70 1026.00 1026.24 1026.34
1014.37 1014.96 1015.58 1016.17 1016.81 1017.28 1017.78 1018.44 1019.33 1019.83 1019.81 1020.01 1020.21 1020.63 1021.00 1021.40 1021.39 1021.24 1021.32 1021.72 1021.40 1021.77 1022.32 1022.76 1022.63 1022.83 1022.87 1022.95 1023.12 1022.76 1022.53 1022.57 1022.71 1023.00 1023.28 1023.55 1023.76 1023.97 1024.42 1024.65 1024.86 1025.02 1025.01
1015.05 1015.37 1015.76 1016.25 1016.84 1017.47 1018.52 1019.00 1019.47 1019.79 1020.41 1020.76 1020.88 1020.79 1021.06 1021.24 1021.13 1021.13 1021.39 1021.33 1021.60 1021.72 1021.99 1022.23 1022.16 1022.32 1022.23 1022.06 1022.25 1022.26 1022.05 1022.08 1022.19 1022.36 1022.59 1022.75 1022.88 1023.07 1023.29 1023.46 1023.64 1023.74 1023.82
1016.45 1016.71 1017.04 1017.59 1018.08 1018.86 1019.46 1019.80 1019.77 1020.45 1020.57 1020.83 1020.90 1021.17 1020.85 1020.71 1020.98 1021.53 1021.77 1022.13 1022.32 1022.19 1022.19 1022.32 1022.17 1022.14 1021.47 1021.53 1021.64 1021.62 1021.47 1021.49 1021.56 1021.76 1021.90 1022.05 1022.11 1022.24 1022.24 1022.30 1022.36 1022.47 1022.54
1017.62 1018.09 1018.32 1018.88 1019.54 1019.76 1020.18 1020.47 1020.52 1020.92 1021.35 1021.71 1021.82 1022.41 1021.92 1021.08 1020.73 1020.98 1021.84 1022.82 1023.11 1023.09 1022.87 1022.62 1022.53 1022.54 1022.21 1021.97 1022.07 1021.94 1021.64 1021.39 1021.27 1021.26 1021.22 1021.34 1021.36 1021.40 1021.30 1021.26 1021.32 1021.32 1021.24
1018.76 1019.00 1019.27 1019.81 1020.40 1020.42 1020.35 1020.77 1020.91 1021.29 1021.69 1021.87 1022.12 1022.10 1022.21 1022.08 1021.79 1022.10 1022.62 1023.51 1024.02 1024.23 1023.91 1023.40 1022.92 1022.58 1022.45 1022.30 1022.54 1022.34 1021.85 1021.34 1021.07 1020.86 1020.73 1020.67 1020.73 1020.74 1020.61 1020.45 1020.36 1020.36 1020.29
1019.68 1019.73 1019.92 1020.43 1021.16 1021.00 1021.09 1021.20 1021.50 1021.87 1022.12 1022.66 1022.97 1022.82 1022.89 1022.85 1023.14 1023.50 1023.70 1024.33 1024.58 1024.44 1024.26 1024.18 1023.70 1023.17 1022.74 1022.91 1023.03 1022.76 1022.27 1021.65 1021.13 1020.80 1020.51 1020.26 1020.13 1020.00 1019.89 1019.72 1019.57 1019.48 1019.43
1020.08 1020.48 1020.54 1020.99 1021.60 1021.50 1021.41 1021.83 1022.24 1022.60 1023.27 1023.68 1023.84 1023.72 1023.78 1024.42 1024.43 1024.50 1024.88 1024.94 1025.54 1025.07 1025.07 1024.75 1024.03 1023.89 1023.36 1023.42 1023.37 1023.13 1022.62 1022.05 1021.46 1020.99 1020.61 1020.23 1019.90 1019.59 1019.36 1019.08 1018.91 1018.78 1018.75
1020.15 1020.48 1020.72 1021.26 1021.82 1022.10 1022.51 1022.95 1023.16 1023.81 1024.05 1024.35 1024.60 1024.45 1024.73 1025.23 1025.39 1025.16 1025.48 1025.40 1025.35 1025.09 1025.02 1024.60 1023.91 1023.77 1023.66 1023.47 1023.17 1022.87 1022.55 1022.06 1021.50 1021.11 1020.78 1020.20 1019.67 1019.32 1018.94 1018.58 1018.32 1018.16 1018.05
1020.55 1020.55 1021.46 1021.89 1022.35 1022.73 1023.21 1024.03 1024.08 1024.38 1024.65 1024.77 1025.20 1025.60 1025.69 1025.93 1026.03 1025.82 1025.60 1025.24 1025.38 1025.18 1024.61 1024.08 1023.81 1023.73 1023.47 1023.18 1022.84 1022.44 1022.02 1021.57 1021.20 1020.75 1020.24 1019.76 1019.29 1018.86 1018.47 1018.07 1017.69 1017.48 1017.37
1021.17 1021.63 1022.36 1022.70 1023.16 1023.57 1023.94 1024.60 1024.76 1025.14 1025.32 1025.63 1026.13 1026.66 1026.34 1026.64 1026.28 1025.84 1025.91 1025.39 1025.27 1024.76 1024.09 1023.89 1023.77 1023.55 1023.26 1022.84 1022.38 1021.81 1021.30 1020.80 1020.31 1019.72 1019.33 1018.98 1018.62 1018.20 1017.87 1017.52 1017.17 1016.93 1016.69
Wind_Speed
9 10 11 9 10 10 8 8 9 8 9 9 9 8 7 7 7 7 6 7 7 5 4 6 5 5 3 3 2 1 1 2 2 3 2 2 2 2 2 2 3 1 1
10 10 9 10 8 9 9 8 10 9 8 9 8 9 7 7 7 7 7 6 7 7 6 7 6 4 4 4 3 3 2 1 2 3 2 2 3 3 3 2 3 2 2
10 10 9 9 9 8 8 9 9 9 8 8 9 9 8 7 7 7 7 7 7 7 7 7 7 6 4 3 3 3 3 2 2 3 3 1 1 2 1 2 3 2 3
9 9 9 9 8 8 8 9 8 8 8 8 7 7 7 7 7 7 7 7 7 7 6 6 6 7 7 6 5 4 3 2 3 3 3 3 3 1 2 2 2 2 2
7 8 8 8 8 8 8 8 7 8 7 8 7 7 7 7 6 7 7 8 7 6 5 6 6 6 7 6 4 5 5 3 3 3 3 2 3 2 3 2 1 1 3
8 7 8 8 8 8 9 8 8 7 8 8 7 7 7 5 12 13 8 6 7 7 7 6 5 6 7 7 8 8 6 5 5 3 3 4 4 4 3 3 2 1 2
7 7 8 8 8 8 8 8 8 8 6 7 7 8 7 6 11 12 13 6 7 7 7 6 5 5 7 7 10 11 11 12 11 4 4 5 3 5 4 3 3 3 3
8 8 8 9 8 8 9 9 7 6 7 6 6 6 5 5 12 13 12 6 6 6 7 8 8 9 9 9 8 7 7 6 5 4 5 4 3 2 5 4 4 2 2
9 10 10 10 10 9 9 8 5 6 5 5 4 6 6 5 13 14 12 6 5 7 8 9 10 8 12 14 6 7 6 6 9 11 10 10 10 9 6 4 2 3 3
11 11 9 9 10 10 8 8 5 5 4 5 5 6 6 6 12 14 12 5 6 7 8 7 11 9 12 16 9 7 7 8 5 2 2 6 8 6 9 6 3 3 3
7 7 8 9 9 8 7 4 5 5 6 5 5 3 5 6 6 15 17 7 7 6 5 4 6 16 17 17 18 8 9 4 8 5 4 3 2 3 3 4 5 4 3
7 7 8 7 6 6 8 4 5 6 6 5 5 3 2 4 9 11 16 19 10 5 6 4 3 13 16 19 14 15 17 10 3 3 2 4 5 6 6 6 7 7 5
7 7 7 6 6 7 8 7 4 5 5 4 4 3 3 4 4 12 14 15 16 10 3 5 8 10 12 13 15 17 12 6 5 5 7 7 8 7 5 3 5 5 4
8 7 7 8 7 6 5 6 6 6 5 5 4 4 3 2 3 3 3 3 8 6 6 4 6 6 8 7 3 6 5 6 7 8 8 7 4 4 5 5 4 3 1
7 7 7 6 7 6 3 3 2 1 3 3 3 3 3 1 1 4 4 2 2 2 1 0 2 1 2 3 3 5 5 6 7 7 7 6 6 6 6 5 5 4 7
6 3 4 5 4 4 5 4 11 8 7 5 6 4 2 5 3 1 1 1 1 1 1 2 1 0 2 3 3 4 6 9 8 7 6 5 6 7 7 6 6 7 8
8 7 5 5 4 5 4 6 5 3 8 7 6 4 3 3 3 2 2 0 0 2 2 2 2 3 4 5 6 6 7 7 6 5 6 6 7 7 7 7 7 8 9
7 8 6 5 6 5 4 3 3 4 5 2 7 7 6 3 2 3 3 2 0 2 2 4 4 5 5 5 6 6 6 5 4 6 7 7 7 7 7 8 8 10 9
7 6 6 6 5 5 4 3 4 3 4 3 2 4 3 7 7 8 9 3 2 2 1 2 3 3 3 4 6 6 7 5 5 4 5 7 7 7 8 8 9 12 11
7 9 7 4 4 4 3 4 4 4 4 3 4 2 3 1 4 4 4 4 4 4 4 4 4 4 4 6 7 6 4 2 3 5 5 6 6 7 9 9 9 9 9
4 4 6 4 3 3 4 4 4 4 4 4 3 1 9 3 5 5 5 4 3 4 5 4 4 4 4 4 6 7 5 5 3 5 5 5 6 7 8 8 8 9 9
3 4 5 5 2 3 3 3 4 4 4 5 4 5 10 4 5 4 4 3 2 3 3 3 4 5 5 5 6 7 7 7 5 4 6 6 6 7 7 8 8 8 8
3 4 4 5 3 3 5 5 4 5 3 3 2 4 4 4 3 3 2 1 2 2 4 3 2 3 3 2 3 5 7 7 7 7 8 8 7 7 7 9 8 8 8
4 5 5 5 4 4 4 4 4 4 3 4 4 4 4 3 2 2 1 2 3 3 3 4 3 4 4 4 4 4 4 5 6 7 9 9 9 9 8 8 9 10 9
4 6 5 4 4 4 4 3 4 3 4 4 5 3 3 2 2 2 2 3 2 2 4 4 3 5 7 9 9 9 8 9 8 8 7 9 11 12 10 9 10 9 9
6 6 4 4 4 4 4 3 3 4 5 4 3 3 2 1 1 2 3 3 3 3 5 4 6 9 9 8 8 10 10 13 11 12 8 7 8 8 7 10 12 9 10
Wind_Direction
137 139 144 157 169 162 158 147 140 133 146 155 155 152 151 152 149 134 141 144 146 141 134 137 135 140 139 140 143 84 81 122 234 284 128 144 149 182 187 226 224 286 324
142 142 154 164 152 139 147 143 140 150 154 155 152 150 153 156 157 148 159 164 149 160 160 146 163 158 161 165 151 176 175 202 195 268 211 178 186 194 180 223 257 220 252
138 146 156 155 144 150 147 146 148 149 153 154 150 157 161 165 155 161 158 157 163 167 170 166 173 163 178 189 184 180 182 209 205 228 273 182 177 158 248 266 234 236 245
148 149 153 158 155 151 145 144 146 152 153 152 157 160 164 156 157 161 154 160 166 172 171 175 177 181 193 195 197 191 189 202 232 235 256 249 201 194 143 223 304 249 256
146 144 154 144 141 135 138 144 149 152 154 153 156 164 157 157 165 165 162 173 162 159 171 189 193 181 193 187 179 192 185 202 227 228 241 238 214 200 194 189 199 272 291
151 152 148 146 142 142 147 153 151 157 157 162 171 160 160 167 173 170 155 153 172 174 190 200 189 169 204 213 217 205 193 193 216 198 212 225 236 213 161 168 168 102 291
153 146 146 147 150 156 150 148 160 171 160 168 164 165 175 172 167 164 163 173 178 187 191 177 193 197 197 206 218 221 230 235 227 202 230 221 241 205 156 161 180 174 227
159 155 154 156 158 156 157 168 160 162 173 170 170 169 160 180 168 171 179 181 190 196 191 194 195 200 204 196 190 196 209 211 216 224 217 242 246 228 173 172 176 174 317
173 173 174 165 159 163 173 170 153 150 165 169 154 161 164 174 174 176 182 188 201 208 209 203 202 209 215 209 190 205 214 214 218 227 238 250 257 246 178 116 162 105 277
184 182 168 158 165 174 172 167 141 148 145 134 141 167 175 179 189 186 187 182 206 215 221 214 213 210 210 213 208 200 215 227 185 184 215 245 241 232 221 186 168 170 187
160 149 157 170 169 158 142 132 133 126 118 125 148 173 174 182 205 199 205 202 212 218 217 200 215 225 223 220 220 197 219 157 216 193 194 211 197 200 204 195 197 192 197
146 149 159 155 143 139 140 114 129 128 132 154 158 212 197 202 212 221 221 224 223 212 219 207 191 224 232 231 231 230 230 232 157 160 172 216 213 223 221 205 203 212 224
140 149 145 137 140 139 141 140 135 146 160 174 176 202 225 199 198 225 237 239 239 235 198 201 209 223 232 245 245 244 241 228 188 199 217 223 218 223 207 199 201 203 212
146 146 145 150 146 146 146 159 161 165 166 171 183 208 208 210 190 201 216 238 255 253 237 228 210 205 206 216 225 261 249 224 211 218 225 228 195 175 204 189 190 182 193
135 146 153 148 153 146 119 148 143 67 138 151 198 158 160 197 282 185 182 183 203 227 59 4 247 164 193 225 197 214 230 238 236 227 227 227 214 200 214 194 211 205 222
117 115 121 116 103 112 117 83 52 74 71 84 100 116 88 132 174 155 164 46 211 192 62 255 273 225 187 243 246 230 223 232 237 237 225 220 214 211 220 208 210 215 231
117 117 110 105 99 109 114 128 126 57 107 104 115 120 133 183 207 236 162 64 124 154 142 235 224 230 234 228 243 244 245 234 233 212 224 225 225 224 217 223 218 222 234
84 83 103 108 112 106 110 112 109 140 141 131 72 89 78 84 35 7 333 292 262 225 192 224 226 230 230 238 245 246 247 237 209 214 226 233 229 232 232 229 225 231 236
55 59 64 64 67 81 93 92 96 95 101 112 66 82 67 77 74 54 38 50 341 2 19 333 327 304 272 255 244 245 238 226 220 211 225 232 234 234 240 241 239 235 239
56 56 60 74 87 82 88 104 97 86 79 76 64 20 350 54 78 79 72 25 360 354 2 14 11 345 348 343 333 337 325 298 247 247 234 231 236 235 246 248 243 247 239
68 71 82 64 66 90 85 97 102 109 98 85 78 100 56 43 56 58 53 38 8 343 344 347 347 347 344 -0 341 329 309 287 253 255 253 242 243 248 248 251 253 253 254
45 62 79 77 54 78 94 90 77 80 85 93 68 40 53 50 53 51 51 38 357 338 342 324 343 350 354 353 332 322 319 310 304 284 282 271 256 256 257 255 254 252 255
87 82 82 81 78 68 62 61 65 68 75 70 79 69 53 38 46 58 44 10 340 348 325 314 337 326 341 319 300 306 312 314 322 321 307 298 292 275 260 263 262 259 255
97 92 81 77 69 70 68 68 80 68 70 64 49 48 53 35 24 32 353 17 355 336 304 315 339 316 305 298 295 284 278 285 301 307 305 298 292 290 283 271 267 262 263
71 77 71 76 80 86 84 70 67 64 67 60 47 38 27 21 357 345 12 10 337 316 320 325 318 308 310 310 302 298 288 301 294 284 289 283 279 279 275 274 273 267 261
71 75 74 75 72 69 69 70 75 62 61 52 44 6 32 327 315 10 354 3 323 315 334 331 317 312 309 300 293 301 302 305 299 288 287 289 291 284 277 271 270 266 266